Location: Newark
(44.6028°N, 124.0883°W)
Time: 07:07:10
(UTC+00:00)

Transit 2A Rocket - All Passes

Search period start: 20 October 2019 00:00
Search period end: 30 October 2019 00:00
Orbit: 594 x 909 km, 66.7° (Epoch: 19 October)

Date Brightness Start Highest point End Pass type
(mag) Time Alt. Az. Time Alt. Az. Time Alt. Az.
20 Oct - 11:49:30 10° SSE 11:52:45 17° ESE 11:55:51 10° ENE visible
20 Oct - 13:29:50 10° SW 13:34:54 66° NW 13:39:34 10° NNE visible
20 Oct - 15:16:04 10° WNW 15:18:16 13° NW 15:20:25 10° N daylight
20 Oct - 20:29:50 10° N 20:33:05 20° NE 20:36:19 10° E daylight
20 Oct - 22:11:43 10° NW 22:15:55 53° WSW 22:20:10 10° SSE daylight
21 Oct - 12:47:16 10° SSW 12:52:23 73° ESE 12:57:04 10° NE visible
21 Oct - 14:31:52 10° W 14:35:22 19° NW 14:38:41 10° N daylight
21 Oct - 19:48:03 10° N 19:50:12 13° NE 19:52:19 10° ENE daylight
21 Oct - 21:29:07 10° NNW 21:33:26 82° NE 21:37:49 10° SE daylight
21 Oct - 23:14:41 10° W 23:15:17 10° WSW 23:15:54 10° WSW daylight
22 Oct - 12:05:07 10° S 12:09:56 42° ESE 12:14:23 10° NE visible
22 Oct - 13:48:15 10° WSW 13:52:34 29° NW 13:56:37 10° NNE visible
22 Oct - 20:46:42 10° NNW 20:50:52 45° NE 20:55:04 10° SE daylight
22 Oct - 22:29:57 10° WNW 22:33:04 20° WSW 22:36:14 10° SSW daylight
23 Oct - 11:23:29 10° SSE 11:27:34 24° ESE 11:31:23 10° ENE visible
23 Oct - 13:05:03 10° SW 13:09:54 47° NW 13:14:23 10° NNE visible
23 Oct - 20:04:28 10° NNW 20:08:11 27° NE 20:11:54 10° ESE daylight
23 Oct - 21:46:49 10° NW 21:50:46 35° WSW 21:54:46 10° S daylight
24 Oct - 10:42:47 10° SE 10:45:17 14° ESE 10:47:41 10° ENE visible
24 Oct - 12:22:14 10° SW 12:27:19 79° NW 12:31:59 10° NNE visible
24 Oct - 14:07:53 10° WNW 14:10:32 15° NW 14:13:07 10° N visible
24 Oct - 19:22:27 10° N 19:25:22 17° NE 19:28:18 10° E daylight
24 Oct - 21:04:04 10° NW 21:08:21 67° WSW 21:12:42 10° SSE daylight
25 Oct - 11:39:49 10° SSW 11:44:49 60° ESE 11:49:25 10° NE visible
25 Oct - 13:23:54 10° W 13:27:41 22° NW 13:31:15 10° N visible
25 Oct - 18:40:56 10° NNE 18:42:27 12° NE 18:43:57 10° NE daylight
25 Oct - 20:21:33 10° NNW 20:25:51 67° ENE 20:30:12 10° SE daylight
25 Oct - 22:05:48 10° W 22:07:49 13° WSW 22:09:51 10° SW daylight
26 Oct - 10:57:49 10° S 11:02:23 34° ESE 11:06:38 10° NE visible
26 Oct - 12:40:26 10° WSW 12:44:55 34° NW 12:49:07 10° NNE visible
26 Oct - 19:39:12 10° NNW 19:43:14 37° NE 19:47:18 10° ESE daylight
26 Oct - 21:22:04 10° WNW 21:25:33 24° WSW 21:29:06 10° SSW daylight
27 Oct - 10:16:27 10° SSE 10:20:03 20° ESE 10:23:29 10° ENE visible
27 Oct - 11:57:22 10° SW 12:02:17 55° NW 12:06:49 10° NNE visible
27 Oct - 13:44:23 10° NW 13:45:46 11° NW 13:47:09 10° NNW visible
27 Oct - 18:57:01 10° N 19:00:30 23° NE 19:04:00 10° E daylight
27 Oct - 20:39:06 10° NW 20:43:12 44° WSW 20:47:24 10° S daylight
28 Oct - 09:36:33 10° ESE 09:37:48 11° ESE 09:39:03 10° E night (unlit)
28 Oct - 11:14:41 10° SSW 11:19:44 86° ESE 11:24:23 10° NNE visible
28 Oct - 12:59:46 10° W 13:02:49 17° NW 13:05:46 10° N visible
28 Oct - 18:15:06 10° N 18:17:40 15° NE 18:20:13 10° ENE daylight
28 Oct - 19:56:27 10° NNW 20:00:46 83° WSW 20:05:11 10° SSE daylight
29 Oct - 10:32:24 10° S 10:37:16 49° ESE 10:41:45 10° NE visible
29 Oct - 12:15:59 10° WSW 12:20:00 25° NW 12:23:48 10° N visible
29 Oct - 19:13:59 10° NNW 19:18:13 54° NE 19:22:32 10° SE daylight
29 Oct - 20:57:37 10° WNW 21:00:19 16° WSW 21:03:05 10° SSW daylight
